Location: Eschentzwiller
(47.7125°N, 7.3981°E)
Time: 01:18:56
(UTC+00:00)

Cosmos 1400 Rocket - Pass Details

Date: 27 October 2020
Orbit: 521 x 568 km, 81.2° (Epoch: 26 November)

Event Time Altitude Azimuth Distance (km) Brightness Sun altitude
Rises 17:18:24 0° 176° (S) 2,753 6.4 -10.4°
Reaches altitude 10° 17:20:37 10° 170° (S) 1,859 5.5 -10.7°
Maximum altitude 17:24:35 49° 96° (E) 738 3.0 -11.4°
Drops below altitude 10° 17:28:32 10° 22° (NNE) 1,856 5.2 -12.0°
Sets 17:30:45 0° 17° (NNE) 2,749 6.2 -12.4°
